EW1090 Weather Reports


Display with metric or nautical units.
time (UTC)temp
F
wind
direction
speed
MPH
gust
MPH
rain 1hr
in
rain 24hr
in
rain mn
in
humidity
%
barometer
mb
20260510220832 85 161 1.0 9.0 0.01 1.02 0.15 56 1014.6
20260510220329 85 64 0.0 6.0 0.01 1.02 0.15 55 1014.6
20260510215826 85 96 0.0 6.0 0.01 1.02 0.15 56 1014.6
20260510215342 85 128 0.0 0.0 0.01 1.02 0.15 55 1014.7
20260510214817 85 74 0.0 2.0 0.01 1.02 0.15 55 1014.8
20260510214333 85 86 0.0 2.0 0.01 1.02 0.15 57 1014.8
20260510213830 85 208 0.0 0.0 0.02 1.02 0.15 56 1014.7
20260510213347 85 161 0.0 0.0 0.02 1.02 0.15 57 1014.6
20260510212821 85 77 0.0 2.0 0.02 1.02 0.15 60 1014.5
20260510212337 85 58 0.0 3.0 0.01 1.01 0.14 58 1014.6
20260510211813 85 119 0.0 3.0 0.01 1.01 0.14 58 1014.5
20260510211330 85 100 0.0 0.0 0.01 1.11 0.14 59 1014.6
20260510210824 85 175 0.0 0.0 0.01 1.11 0.14 59 1014.8
20260510210312 85 209 0.0 4.0 0.02 1.11 0.14 60 1014.9
20260510205830 85 147 0.0 4.0 0.02 1.11 0.14 59 1014.9
20260510205325 85 100 0.0 1.0 0.02 1.11 0.14 60 1014.8
20260510204822 85 165 0.0 0.0 0.02 1.11 0.14 60 1014.8
20260510204319 85 48 0.0 0.0 0.02 1.11 0.14 61 1014.6
20260510203814 84 202 0.0 1.0 0.01 1.10 0.13 60 1014.7
20260510203331 85 56 0.0 1.0 0.02 1.10 0.13 60 1014.8
20260510202827 85 27 0.0 0.0 0.02 1.10 0.13 60 1014.8
20260510202322 85 44 0.0 3.0 0.02 1.10 0.13 61 1014.8
20260510201817 84 163 0.0 3.0 0.02 1.10 0.13 60 1014.7
20260510201314 84 290 0.0 8.0 0.02 1.21 0.13 62 1014.7
20260510200852 84 76 1.0 8.0 0.03 1.21 0.13 62 1014.7
20260510200327 84 136 0.0 5.0 0.02 1.20 0.12 61 1014.6
20260510195824 84 100 0.0 5.0 0.02 1.20 0.12 61 1014.6
20260510195319 84 63 0.0 6.0 0.02 1.20 0.12 63 1014.6
20260510194814 83 111 1.0 7.0 0.02 1.20 0.12 64 1014.7
20260510194330 83 103 0.0 7.0 0.03 1.20 0.12 64 1014.7
20260510193826 84 94 0.0 4.0 0.03 1.20 0.12 63 1014.7
20260510193341 84 116 0.0 2.0 0.02 1.19 0.11 63 1014.8
20260510192836 83 133 0.0 2.0 0.02 1.19 0.11 64 1014.8
20260510192352 84 140 0.0 7.0 0.03 1.19 0.11 64 1015.0
20260510191828 84 90 1.0 8.0 0.03 1.19 0.11 64 1014.9
20260510191324 84 86 1.0 9.0 0.03 1.31 0.11 64 1014.9
20260510190819 84 59 0.0 5.0 0.03 1.30 0.10 63 1014.9
20260510190336 84 78 0.0 5.0 0.03 1.30 0.10 62 1015.0
20260510185853 85 82 0.0 0.0 0.03 1.30 0.10 63 1014.9
20260510185327 85 80 0.0 3.0 0.03 1.30 0.10 62 1014.8
20260510184824 84 134 0.0 3.0 0.04 1.30 0.10 64 1014.8
20260510184320 84 100 0.0 0.0 0.03 1.29 0.09 63 1014.9
20260510183816 84 98 0.0 2.0 0.03 1.29 0.09 64 1015.0
20260510183332 84 154 0.0 10.0 0.04 1.29 0.09 65 1015.0
20260510182828 84 166 1.0 6.0 0.04 1.29 0.09 64 1015.1
20260510182323 84 146 0.0 8.0 0.03 1.28 0.08 64 1015.2
20260510181818 84 92 2.0 8.0 0.03 1.28 0.08 65 1015.3
20260510181314 83 76 0.0 7.0 0.04 1.40 0.08 67 1015.3
20260510180823 83 113 2.0 7.0 0.03 1.39 0.07 67 1015.4
20260510180318 83 127 2.0 6.0 0.03 1.39 0.07 66 1015.7
20260510175835 83 63 0.0 0.0 0.04 1.39 0.07 66 1015.8
20260510175351 83 131 0.0 0.0 0.04 1.39 0.07 65 1015.8
20260510174827 83 138 0.0 0.0 0.04 1.38 0.06 65 1015.9
20260510174342 83 74 0.0 0.0 0.04 1.38 0.06 65 1015.9
20260510173826 83 78 0.0 0.0 0.04 1.38 0.06 64 1015.9
20260510173322 83 86 0.0 0.0 0.04 1.37 0.05 66 1015.9
20260510172839 83 178 0.0 6.0 0.04 1.37 0.05 64 1016.0
20260510172315 83 138 0.0 6.0 0.04 1.37 0.05 63 1016.0
20260510171824 83 129 0.0 0.0 0.04 1.36 0.04 64 1016.0
20260510171320 83 104 0.0 3.0 0.04 1.49 0.04 66 1016.1
20260510170837 82 109 0.0 4.0 0.04 1.49 0.04 68 1016.2
20260510170332 82 46 0.0 4.0 0.04 1.48 0.03 66 1016.3
20260510165827 82 88 0.0 3.0 0.04 1.48 0.03 65 1016.3
20260510165343 82 78 0.0 2.0 0.04 1.48 0.03 68 1016.4
20260510164838 82 104 0.0 1.0 0.04 1.47 0.02 67 1016.3
20260510164333 82 337 0.0 7.0 0.04 1.47 0.02 69 1016.3
20260510163830 82 77 1.0 7.0 0.04 1.47 0.02 67 1016.2
20260510163346 82 87 0.0 0.0 0.03 1.46 0.01 68 1016.3
20260510162819 82 51 0.0 1.0 0.04 1.46 0.01 70 1016.3
20260510162335 81 106 0.0 1.0 0.04 1.46 0.01 70 1016.3
20260510161851 81 85 0.0 0.0 0.03 1.45 0.00 68 1016.3
20260510161325 81 78 0.0 5.0 0.03 1.57 1.45 70 1016.4
20260510160822 81 160 0.0 5.0 0.03 1.57 1.45 70 1016.4
20260510160317 80 132 0.0 5.0 0.03 1.56 1.44 71 1016.2
20260510155320 80 161 0.0 0.0 0.03 1.56 1.44 71 1016.0
20260510154816 80 65 0.0 3.0 0.02 1.55 1.43 73 1016.0
20260510154326 79 140 0.0 2.0 0.03 1.55 1.43 74 1016.0
20260510153824 78 118 0.0 1.0 0.03 1.55 1.43 73 1016.0
20260510153318 78 97 0.0 1.0 0.02 1.54 1.42 77 1016.0
20260510152813 78 19 0.0 3.0 0.02 1.54 1.42 78 1016.1
20260510152330 77 15 0.0 3.0 0.02 1.54 1.42 79 1016.1
20260510151825 77 38 0.0 3.0 0.03 1.54 1.42 79 1016.2
20260510151321 77 87 0.0 5.0 0.03 1.67 1.42 78 1016.2
20260510150833 77 91 0.0 2.0 0.02 1.66 1.41 81 1016.3
20260510150351 76 28 0.0 0.0 0.02 1.66 1.41 81 1016.3
20260510145825 76 89 0.0 0.0 0.03 1.66 1.41 79 1016.4
20260510145320 76 44 0.0 4.0 0.03 1.66 1.41 82 1016.4
20260510144816 75 80 0.0 4.0 0.03 1.66 1.41 81 1016.5
20260510144332 75 17 0.0 4.0 0.02 1.65 1.40 83 1016.5
20260510143854 75 84 0.0 4.0 0.02 1.65 1.40 83 1016.4
20260510143328 74 318 0.0 5.0 0.03 1.65 1.40 84 1016.3
20260510142824 74 96 0.0 5.0 0.03 1.65 1.40 86 1016.2
20260510142341 73 57 1.0 3.0 0.02 1.64 1.39 86 1016.3
20260510141836 73 147 0.0 3.0 0.02 1.64 1.39 87 1016.2
20260510141332 73 74 0.0 3.0 0.02 1.80 1.39 89 1016.2
20260510140826 73 78 0.0 5.0 0.03 1.80 1.39 90 1016.2
20260510140322 72 58 0.0 5.0 0.03 1.80 1.39 92 1016.1
20260510135819 72 90 0.0 3.0 0.02 1.79 1.38 93 1016.0
20260510135315 72 90 0.0 2.0 0.02 1.79 1.38 93 1016.2
20260510134832 71 90 1.0 4.0 0.02 1.79 1.38 93 1016.2
20260510134327 71 63 1.0 4.0 0.02 1.79 1.38 93 1016.2
20260510133835 71 76 1.0 3.0 0.03 1.79 1.38 93 1016.1
20260510133332 71 86 1.0 7.0 0.02 1.78 1.37 93 1016.1
20260510132829 71 115 1.0 7.0 0.02 1.78 1.37 93 1016.1
20260510132323 70 108 0.0 2.0 0.02 1.78 1.37 93 1016.0
20260510131819 70 62 0.0 2.0 0.02 1.78 1.37 94 1015.8
20260510131315 70 107 0.0 3.0 0.03 1.79 1.37 94 1015.8
20260510130831 70 107 0.0 3.0 0.02 1.78 1.36 94 1015.8
20260510130326 70 98 0.0 3.0 0.02 1.78 1.36 94 1015.5
20260510125833 70 101 0.0 0.0 0.02 1.78 1.36 94 1015.5
20260510125349 70 86 0.0 0.0 0.02 1.78 1.36 94 1015.4
20260510124823 69 86 0.0 0.0 0.03 1.78 1.36 94 1015.4
20260510124320 69 71 0.0 0.0 0.02 1.77 1.35 93 1015.3
20260510123835 69 71 0.0 0.0 0.02 1.77 1.35 94 1015.1
20260510123329 69 71 327.0 327.0 0.02 0.19 1.35 93 1015.1
20260510122824 69 71 0.0 0.0 0.02 1.77 1.35 93 1015.0
20260510122340 69 71 0.0 0.0 0.03 1.77 1.35 94 1014.9
20260510121817 69 71 0.0 0.0 0.03 1.77 1.35 93 1014.9
20260510121333 69 71 0.0 0.0 0.02 1.76 1.34 93 1014.9
20260510120830 69 71 0.0 0.0 0.02 1.76 1.34 93 1014.8
20260510120326 68 71 0.0 0.0 0.02 1.76 1.34 93 1014.8
20260510115822 68 71 0.0 0.0 0.03 1.76 1.34 93 1014.7
20260510115317 68 71 0.0 0.0 0.03 1.76 1.34 93 1014.6
20260510114814 68 71 0.0 0.0 0.02 1.75 1.33 93 1014.5
20260510114329 68 71 0.0 0.0 0.02 1.75 1.33 93 1014.4
20260510113826 68 71 0.0 0.0 0.02 1.75 1.33 93 1014.4
20260510113321 68 71 0.0 0.0 0.03 1.75 1.33 93 1014.1
20260510112323 68 74 0.0 3.0 0.02 1.74 1.32 93 1014.0
20260510111818 68 71 0.0 3.0 0.02 1.74 1.32 93 1014.0
20260510111314 68 100 0.0 4.0 0.03 1.74 1.32 93 1014.0
20260510110830 68 100 1.0 4.0 0.03 1.74 1.32 93 1014.0
20260510110327 68 74 0.0 3.0 0.03 1.74 1.32 92 1013.8
20260510105823 68 94 0.0 2.0 0.02 1.73 1.31 92 1013.7
20260510105320 68 94 0.0 2.0 0.03 1.73 1.31 93 1013.6
20260510104836 68 105 0.0 1.0 0.03 1.73 1.31 93 1013.4
20260510104332 68 104 0.0 3.0 0.03 1.73 1.31 93 1013.4
20260510103828 68 74 0.0 2.0 0.02 1.72 1.30 93 1013.2
20260510103324 68 74 0.0 0.0 0.02 1.72 1.30 93 1013.1
20260510102821 68 74 0.0 0.0 0.03 1.72 1.30 93 1013.1
20260510102317 68 74 0.0 0.0 0.03 1.72 1.30 93 1013.0
20260510101833 68 74 0.0 0.0 0.03 1.72 1.30 93 1012.9
20260510101329 68 74 0.0 0.0 0.02 1.71 1.29 93 1012.8
20260510100817 68 74 0.0 0.0 0.03 1.71 1.29 93 1012.8
20260510100333 68 74 0.0 0.0 0.03 1.71 1.29 93 1012.7
20260510095830 68 74 0.0 0.0 0.03 1.71 1.29 93 1012.7
20260510095346 68 74 0.0 1.0 0.02 1.70 1.28 93 1012.7
20260510094821 68 74 0.0 1.0 0.03 1.70 1.28 93 1012.7
20260510094333 68 72 0.0 0.0 0.03 1.70 1.28 93 1012.7
20260510093849 68 72 0.0 0.0 0.03 1.70 1.28 93 1012.7
20260510093345 68 72 0.0 0.0 0.03 1.70 1.28 93 1012.7
20260510092841 68 72 0.0 0.0 0.03 1.69 1.27 93 1012.7
20260510092316 68 72 0.0 0.0 0.03 1.69 1.27 93 1012.6
20260510091831 68 72 0.0 1.0 0.03 1.69 1.27 93 1012.5
20260510091326 68 72 0.0 1.0 0.03 1.69 1.27 93 1012.5
20260510090825 68 68 0.0 0.0 0.03 1.68 1.26 93 1012.4
20260510090322 68 31 0.0 0.0 0.03 1.68 1.26 93 1012.4
20260510085818 68 31 0.0 0.0 0.03 1.68 1.26 93 1012.4
20260510085314 68 31 0.0 0.0 0.03 1.68 1.26 93 1012.5
20260510084829 68 31 0.0 0.0 0.03 1.67 1.25 93 1012.6
20260510084325 68 31 0.0 0.0 0.03 1.67 1.25 93 1012.5
20260510083843 68 355 0.0 0.0 0.03 1.67 1.25 93 1012.5
20260510083318 68 355 0.0 0.0 0.03 1.67 1.25 93 1012.5
20260510082814 69 355 0.0 3.0 0.03 1.66 1.24 94 1012.6
20260510082331 69 355 0.0 3.0 0.03 1.66 1.24 94 1012.6
20260510081828 68 26 0.0 3.0 0.03 1.66 1.24 94 1012.5
20260510081325 68 345 0.0 3.0 0.04 1.66 1.24 94 1012.4
20260510080836 67 29 0.0 0.0 0.03 1.65 1.23 93 1012.2
20260510080331 67 106 0.0 0.0 0.03 1.65 1.23 93 1012.2
20260510075847 66 106 0.0 0.0 0.03 1.65 1.23 92 1012.2
20260510075322 66 106 0.0 0.0 0.04 1.65 1.23 92 1012.2
20260510074839 66 106 0.0 0.0 0.03 1.64 1.22 92 1012.2
20260510074316 66 106 0.0 0.0 0.03 1.64 1.22 92 1012.2
20260510073833 66 106 0.0 0.0 0.04 1.64 1.22 92 1012.2
20260510073329 66 106 0.0 0.0 0.04 1.64 1.22 92 1012.1
20260510072841 66 106 0.0 0.0 0.03 1.63 1.21 92 1012.0
20260510072315 66 106 0.0 0.0 0.03 1.63 1.21 92 1011.9
20260510071831 66 106 0.0 0.0 0.04 1.63 1.21 92 1011.9
20260510071348 66 106 0.0 0.0 0.03 1.62 1.20 92 1011.9
20260510070823 66 106 0.0 0.0 0.03 1.62 1.20 92 1011.9
20260510070320 66 106 0.0 0.0 0.04 1.62 1.20 92 1012.0
20260510065817 67 106 0.0 0.0 0.04 1.62 1.20 92 1012.1
20260510065314 67 106 0.0 0.0 0.03 1.61 1.19 92 1012.2
20260510064831 67 106 0.0 0.0 0.04 1.61 1.19 92 1012.3
20260510064328 67 106 0.0 0.0 0.04 1.61 1.19 92 1012.2
20260510063824 67 106 0.0 0.0 0.03 1.60 1.18 92 1012.1
20260510063321 67 106 0.0 0.0 0.04 1.60 1.18 92 1012.0
20260510062818 67 106 0.0 0.0 0.04 1.60 1.18 92 1012.0
20260510062315 67 106 0.0 0.0 0.04 1.60 1.18 92 1012.0
20260510061831 67 106 0.0 0.0 0.04 1.59 1.17 92 1012.0
20260510061328 67 106 0.0 0.0 0.04 1.59 1.17 92 1012.2
20260510060823 67 106 0.0 0.0 0.04 1.59 1.17 92 1012.2
20260510060320 67 106 0.0 0.0 0.04 1.58 1.16 92 1012.2
20260510055756 67 106 0.0 0.0 0.04 1.58 1.16 91 1012.2
20260510055313 67 106 0.0 0.0 0.04 1.58 1.16 91 1012.2
20260510054831 67 106 0.0 0.0 0.04 1.57 1.15 92 1012.3
20260510054327 68 106 0.0 0.0 0.04 1.57 1.15 92 1012.1
20260510053801 67 106 0.0 0.0 0.05 1.57 1.15 91 1012.0
20260510053257 68 106 0.0 0.0 0.04 1.56 1.14 91 1011.9
20260510052813 68 106 0.0 0.0 0.04 1.56 1.14 91 1012.0
20260510052310 68 106 0.0 0.0 0.05 1.56 1.14 91 1012.0
20260510051807 68 106 0.0 0.0 0.04 1.55 1.13 91 1012.0
20260510051303 68 106 0.0 0.0 0.04 1.55 1.13 92 1012.0
20260510050758 68 106 0.0 0.0 0.05 1.55 1.13 92 1012.0
20260510050313 68 106 0.0 0.0 0.04 1.54 1.12 91 1012.1
20260510045803 68 106 0.0 0.0 0.05 1.54 1.12 91 1012.2
20260510045300 68 106 0.0 0.0 0.05 1.54 1.12 92 1012.1
20260510044756 68 106 0.0 0.0 0.04 1.53 1.11 91 1012.1
20260510044312 68 106 0.0 0.0 0.05 1.53 1.11 91 1012.1
20260510043828 68 106 0.0 0.0 0.04 1.52 1.10 91 1012.2
20260510043304 68 106 0.0 0.0 0.05 1.52 1.10 91 1012.3
20260510042821 68 106 0.0 0.0 0.05 1.52 1.10 91 1012.4
20260510042336 68 106 0.0 0.0 0.05 1.51 1.09 91 1012.5
20260510041812 68 92 0.0 1.0 0.05 1.51 1.09 91 1012.4
20260510041308 68 92 0.0 5.0 0.05 1.51 1.09 91 1012.3
20260510040304 68 84 0.0 5.0 0.05 1.50 1.08 91 1012.3
20260510035802 68 132 1.0 5.0 0.05 1.49 1.07 91 1012.2
20260510035313 68 244 0.0 0.0 0.05 1.49 1.07 91 1012.4
20260510034828 68 169 0.0 0.0 0.06 1.49 1.07 91 1012.5
20260510034304 68 195 0.0 3.0 0.05 1.48 1.06 91 1012.6
20260510033758 68 207 1.0 3.0 0.05 1.48 1.06 91 1012.7
20260510033315 68 215 0.0 2.0 0.05 1.47 1.05 91 1012.8
20260510032812 68 126 0.0 0.0 0.05 1.47 1.05 91 1012.9
20260510032308 68 126 0.0 0.0 0.05 1.46 1.04 91 1012.8
20260510031804 68 126 0.0 0.0 0.05 1.46 1.04 91 1012.8
20260510031300 68 126 0.0 0.0 0.06 1.46 1.04 91 1012.9
20260510030757 68 126 0.0 0.0 0.05 1.45 1.03 91 1012.9
20260510030312 68 126 0.0 0.0 0.06 1.45 1.03 91 1012.9
20260510025809 68 126 0.0 0.0 0.05 1.44 1.02 91 1013.0
20260510025306 68 126 0.0 0.0 0.06 1.44 1.02 91 1013.0
20260510024801 68 126 0.0 0.0 0.05 1.43 1.01 91 1013.1
20260510024257 68 126 0.0 0.0 0.06 1.43 1.01 91 1013.0
20260510023814 68 126 0.0 0.0 0.06 1.43 1.01 91 1012.9
20260510023312 68 126 0.0 1.0 0.06 1.42 1.00 91 1012.7
20260510022807 68 126 0.0 2.0 0.06 1.42 1.00 91 1012.6
20260510022306 68 121 0.0 2.0 0.06 1.41 0.99 91 1012.6
20260510021819 68 218 0.0 2.0 0.06 1.41 0.99 91 1012.4
20260510021336 68 222 0.0 0.0 0.06 1.40 0.98 90 1012.3
20260510020311 68 211 0.0 2.0 0.06 1.39 0.97 91 1012.3
20260510015808 69 217 0.0 2.0 0.07 1.39 0.97 91 1012.3
20260510015306 69 217 0.0 2.0 0.06 1.38 0.96 91 1012.4
20260510014801 69 217 0.0 2.0 0.07 1.38 0.96 91 1012.2
20260510014257 69 217 0.0 4.0 0.06 1.37 0.95 91 1012.2
20260510013814 69 82 0.0 8.0 0.07 1.37 0.95 91 1012.1
20260510013310 69 118 2.0 8.0 0.06 1.36 0.94 91 1012.0
20260510012826 69 156 0.0 2.0 0.07 1.36 0.94 91 1011.9
20260510012301 69 134 0.0 0.0 0.07 1.35 0.93 91 1012.0
20260510011758 69 132 0.0 4.0 0.07 1.35 0.93 91 1012.0
20260510011315 69 132 1.0 4.0 0.07 1.34 0.92 91 1011.8
20260510010812 69 104 0.0 4.0 0.07 1.34 0.92 91 1011.8
20260510010309 69 154 1.0 4.0 0.07 1.33 0.91 91 1011.9
20260510005805 69 132 0.0 2.0 0.07 1.32 0.90 91 1011.9
20260510005300 69 102 0.0 5.0 0.07 1.32 0.90 91 1012.0
20260510004816 69 99 1.0 5.0 0.07 1.31 0.89 91 1011.9
20260510004313 69 113 0.0 6.0 0.08 1.31 0.89 91 1011.9
20260510003809 69 86 2.0 6.0 0.07 1.30 0.88 91 1011.9
20260510003305 69 152 0.0 0.0 0.08 1.30 0.88 91 1011.9
20260510002802 69 137 0.0 0.0 0.08 1.29 0.87 91 1011.9
20260510002319 69 137 0.0 0.0 0.07 1.28 0.86 91 1011.9
20260510001836 69 164 0.0 0.0 0.08 1.28 0.86 91 1012.0
20260510001312 69 164 0.0 0.0 0.08 1.36 0.85 91 1011.9
20260510000807 69 155 0.0 0.0 0.08 1.35 0.84 90 1011.9
20260510000320 69 155 0.0 0.0 0.08 1.35 0.84 91 1011.8
20260509235814 69 155 0.0 0.0 0.08 1.34 0.83 91 1011.8
20260509235310 69 118 0.0 0.0 0.09 1.34 0.83 91 1011.9
20260509234808 69 172 0.0 0.0 0.08 1.33 0.82 90 1011.8
20260509234325 69 160 0.0 0.0 0.08 1.32 0.81 91 1011.7
20260509233800 69 121 0.0 0.0 0.09 1.32 0.81 91 1011.8
20260509233317 70 167 0.0 0.0 0.09 1.31 0.80 91 1011.8
20260509232833 70 132 0.0 0.0 0.08 1.30 0.79 91 1011.8
20260509232327 70 132 0.0 0.0 0.09 1.30 0.79 91 1012.2
20260509231824 70 132 0.0 0.0 0.09 1.29 0.78 91 1012.2
20260509231258 70 132 0.0 0.0 0.09 1.42 0.77 91 1012.1
20260509230815 70 132 0.0 0.0 0.09 1.41 0.76 91 1012.1
20260509230313 70 119 0.0 0.0 0.09 1.41 0.76 91 1012.0
20260509225809 70 229 0.0 0.0 0.09 1.40 0.75 91 1012.2
20260509225306 70 236 0.0 0.0 0.09 1.39 0.74 91 1012.0
20260509224801 70 147 0.0 0.0 0.10 1.39 0.74 91 1011.8
20260509224258 70 207 0.0 0.0 0.10 1.38 0.73 91 1011.8
20260509223814 70 193 0.0 0.0 0.10 1.37 0.72 90 1011.8
20260509223311 70 195 0.0 0.0 0.09 1.36 0.71 91 1011.7
20260509222807 70 202 0.0 0.0 0.10 1.36 0.71 91 1011.4
20260509222306 70 185 0.0 0.0 0.10 1.35 0.70 91 1011.1
20260509221820 70 180 0.0 0.0 0.10 1.34 0.69 90 1011.0
20260509221336 70 180 0.0 0.0 0.10 1.52 0.68 91 1011.0